Pagrindinis puslapis
METAR-TAF:

METAR-TAF

Oro uostai :

Apartado, Kolumbija

platuma: 07-49N, ilguma: 076-42W, Aukštis: 20 m

Dabartinis oras

Ataskaita buvo paskelbta 25 minutes, ne 17:00 UTC
Vėjas 12 kt iš Pietų/Pietryčių
Temperatūra 28°C
Drėgmė 79%
Slėgis 1014 hPa
Matomumas 10 km arba daugiau
Išsisklaidę debesys ne aukštis 1800 ft

METAR: SKLC 071700Z 16012KT 9999 SCT018 28/24 A2994

Laikas: 12:25 (17:25 UTC)


TAF: trūkstamas

Orai ataskaitas ir orų prognozės (METAR, TAF).

turimą stotys yra geltonos ir raudonos taškus žemėlapyje.

Perkelti pele per norėdami pamatyti stoties vardą.

Tada spustelėkite, norėdami matyti oro stebėjimo ir prognozės.

Norėdami pakeisti žemėlapį: spustelėkite ant žalios mygtukų su juodo kryžiaus žemyn,; žalią mygtuką su brūkšneliu, jei norite nutolinti; arba žalių rodyklių gretimoms žemėlapius.


METAR-TAF: